Regional Weather Roundup
Issued by NWS San Angelo, TX

Home | Current Version | Previous Version | Text Only | Print | Product List | Glossary On
Versions: 1 2 3 4 5 6 7 8 9 10 11 12 13 14 15 16 17 18 19 20 21 22 23 24 25 26 27 28 29 30 31 32 33 34 35 36 37 38 39 40 41 42 43 44 45 46 47 48 49 50
220
ASUS44 KSJT 231910
RWRSJT
WEST CENTRAL TEXAS REGIONAL WEATHER ROUNDUP
NATIONAL WEATHER SERVICE SAN ANGELO TX
100 PM CST THU FEB 23 2017

NOTE: "FAIR" INDICATES FEW OR NO CLOUDS BELOW 12,000 FEET WITH NO
SIGNIFICANT WEATHER AND/OR OBSTRUCTIONS TO VISIBILITY.

TXZ049-054-064>066-071>073-076>078-098-099-113-114-127-128-139-140-
154-155-168>170-232000
...LOCATIONS ACROSS WEST CENTRAL TEXAS...

CITY           SKY/WX    TMP DP  RH WIND       PRES   REMARKS
SAN ANGELO     SUNNY     87  35  15 SW17      29.61F
ABILENE        SUNNY     84  41  21 SW15      29.58F
DYESS AFB      SUNNY     88  38  17 SW15      29.55F
JUNCTION       SUNNY     88  36  15 W15G22    29.63F
SWEETWATER     SUNNY     86  27  11 SW20G25   29.61F
BROWNWOOD      SUNNY     86  37  17 SW17G23   29.59F
COLEMAN        CLEAR     85  39  20 SW13G18   29.60F
SONORA         SUNNY     86  34  15 SW9       29.70F
OZONA          FAIR      86  32  14 MISG      29.68F
BRADY          NOT AVBL
$$

TEXAS PANHANDLE/OKLAHOMA PANHANDLE

CITY           SKY/WX    TMP DP  RH WIND       PRES   REMARKS
AMARILLO       SUNNY     75  24  15 SW31G44   29.51F
BORGER         SUNNY     76  24  14 W30G46    29.44F
CANADIAN       SUNNY     83  20  10 W38G46    29.42F
DALHART        SUNNY     73  16  11 SW33G44   29.46F
DUMAS          CLEAR     72  23  16 SW38G44   29.47F
GUYMON         NOT AVBL
HEREFORD       CLEAR     75  21  13 MISG      29.54F
PAMPA          CLEAR     78  27  15 W29G40    29.47F
PERRYTON       SUNNY     79  23  12 SW31G43   29.42F
$$

SOUTHERN PANHANDLE/SOUTH PLAINS/ROLLING PLAINS

CITY           SKY/WX    TMP DP  RH WIND       PRES   REMARKS
LUBBOCK        MOSUNNY   80  25  13 W35G52    29.56F
SNYDER         SUNNY     84  32  15 SW20G26   29.59F
CHILDRESS      SUNNY     85  30  13 W30G41    29.48F
SEMINOLE       CLEAR     78  27  15 W29G39    29.65F
$$

PERMIAN BASIN

CITY           SKY/WX    TMP DP  RH WIND       PRES   REMARKS
MIDLAND        SUNNY     84  24  11 SW25G39   29.63F
ODESSA         SUNNY     84  24  11 W26G47    29.64F
WINK             N/A     83  25  12 MISG      29.63F
$$

FAR WEST/SOUTHWEST MOUNTAINS/TRANS PECOS

CITY           SKY/WX    TMP DP  RH WIND       PRES   REMARKS
ALPINE         CLEAR     80  18  10 SW20G31   29.84F
DRYDEN           N/A     89  20   8 SW21G32   29.64F
EL PASO        MOSUNNY   70  20  15 W41G51    29.76F
FORT STOCKTON  SUNNY     87  21   9 W17G33    29.67F
GUADALUPE PASS LGT RAIN  68  25  19 W54G68    29.74F
MARFA          SUNNY     76  19  11 SW23G36   29.82F
PECOS          CLEAR     83  25  11 SW24G44   29.65F
$$

DALLAS/FORT WORTH METROPLEX

CITY           SKY/WX    TMP DP  RH WIND       PRES   REMARKS
DFW AIRPORT    SUNNY     86  46  24 S16G29    29.54F
FTW MEACHAM    SUNNY     85  47  26 S16       29.54F
DAL-EXECUTIVE  SUNNY     83  46  27 S13G29    29.56F
GRAND PRAIRIE  SUNNY     81  46  30 S18       29.58F
ADDISON        SUNNY     84  45  24 S16G26    29.56F
MESQUITE       CLEAR     84  45  24 S16G25    29.59F
LANCASTER      CLEAR     80  48  32 S23       29.60F
$$

NORTH CENTRAL TEXAS

CITY           SKY/WX    TMP DP  RH WIND       PRES   REMARKS
SHRMAN/DENISON CLEAR     82  46  28 S16G23    29.56F
GAINESVILLE    SUNNY     81  46  29 S14G23    29.55F
BRIDGEPORT     CLEAR     89  39  17 S16G22    29.53F
DENTON         SUNNY     87  47  24 S16       29.53F
WAXAHACHIE     CLEAR     81  51  35 S20G25    29.60F
GRANBURY       CLEAR     91  38  15 S18G28    29.55F
$$

WESTERN NORTH TEXAS

CITY           SKY/WX    TMP DP  RH WIND       PRES   REMARKS
WICHITA FALLS  MOSUNNY   84  43  23 S17       29.48F
VERNON         CLEAR     83  32  16 SW15      29.48F
BRECKENRIDGE   CLEAR     88  36  15 MISG      29.54F
COMANCHE       SUNNY     87  40  18 SW24G32   29.57F
$$

CENTRAL AND SOUTH CENTRAL TEXAS

CITY           SKY/WX    TMP DP  RH WIND       PRES   REMARKS
AUSTIN/BERGSTM SUNNY     86  51  29 S16       29.64F
WACO           SUNNY     83  50  31 S20       29.60F
HILLSBORO      CLEAR     80  55  41 S18G25    29.60F
TEMPLE         SUNNY     82  51  34 S23       29.61F
KILLEEN-GRAY   SUNNY     87  39  18 S22       29.60F
FORT HOOD      SUNNY     89  40  17 S18G26    29.57F
GEORGETOWN     SUNNY     86  45  23 S14       29.63F
LAGO VISTA     FAIR      87  37  16 S15G22    29.66F
SAN MARCOS     SUNNY     84  50  30 S16       29.67F
NEW BRAUNFELS  SUNNY     86  50  28 S17       29.65F
RANDOLPH AFB   SUNNY     85  48  27 S12       29.65F
SAN ANTONIO    SUNNY     84  49  29 S15       29.66F
STINSON        SUNNY     87  50  27 S12       29.63F
PLEASANTON     NOT AVBL
LA GRANGE      SUNNY     84  60  43 S15       29.67F
GIDDINGS       CLEAR    N/A N/A N/A S13G18    29.69F
$$

EAST TEXAS

CITY           SKY/WX    TMP DP  RH WIND       PRES   REMARKS
PARIS          SUNNY     82  46  28 S18       29.61F
CLARKSVILLE    NOT AVBL
TYLER          SUNNY     82  47  29 S23G30    29.64F
LONGVIEW       SUNNY     81  50  33 S15G23    29.66F
PALESTINE      CLEAR     81  51  36 S18G25    29.67F
NACOGDOCHES    SUNNY     79  55  44 S15       29.69F
$$

TEXAS HILL COUNTRY AND EDWARDS PLATEAU

CITY           SKY/WX    TMP DP  RH WIND       PRES   REMARKS
LLANO          CLEAR     91  39  16 SW14G21   29.64F
HORSESHOE BAY    N/A     91  39  16 SW10G23   29.62F
KERRVILLE      SUNNY     85  38  18 S16G23    29.66F
FREDERICKSBRG  SUNNY     85  38  18 S15G21    29.65F
ROCKSPRINGS    CLEAR     84  39  20 W10       29.70F
HONDO          SUNNY     86  44  23 S8        29.66F
UVALDE         CLEAR     82  46  28 CALM      29.66F
DEL RIO        SUNNY     84  41  21 VRB5      29.62F
$$

SOUTHEAST TEXAS

CITY           SKY/WX    TMP DP  RH WIND       PRES   REMARKS
COLLEGE STN    SUNNY     82  57  42 S17G24    29.68F
CALDWELL       NOT AVBL
CROCKETT       CLEAR     81  52  36 S14G21    29.71F
BRENHAM        SUNNY     83  57  41 S17       29.70F
HUNTSVILLE     SUNNY     82  49  31 S13       29.69F
CONROE         SUNNY     81  54  39 S15G24    29.70F
HOUSTON BUSH   SUNNY     82  56  40 SE18      29.71F
HOUSTON HOBBY  SUNNY     79  59  50 SE12      29.72F
PERLAND        SUNNY     80  59  48 SE14      29.74F
WHARTON        CLEAR     81  59  47 S14       29.72F
$$

THE UPPER TEXAS COAST

CITY           SKY/WX    TMP DP  RH WIND       PRES   REMARKS
ORANGE         CLEAR     73  61  66 S14       29.80F
PORT ARTHUR    SUNNY     78  56  46 S14       29.77F
GALVESTON      SUNNY     74  65  73 SE14      29.77F
ANGLETON       SUNNY     79  60  52 S16       29.73F
BAY CITY       CLEAR     78  66  67 S14G20    29.72F
$$

TEXAS COASTAL BEND, RIO GRANDE PLAINS DEEP SOUTH TEXAS

CITY           SKY/WX    TMP DP  RH WIND       PRES   REMARKS
VICTORIA       SUNNY     84  63  49 S16       29.69F
BEEVILLE       FAIR      90  53  28 S15G21    29.67F
ROCKPORT       SUNNY     79  65  62 S15G23    29.68F
PORT ARANSAS   CLEAR     75  66  73 S12G18    29.68F
PORT LAVACA    CLEAR     82  65  56 S16G23    29.71F
CORPUS CHRISTI SUNNY     86  61  42 S21       29.65F
KINGSVILLE NAS SUNNY     96  44  16 S23G29    29.63F
COTULLA        SUNNY     94  38  14 S8        29.62F
LAREDO         SUNNY     95  40  14 S9        29.64F
BROWNSVILLE    SUNNY     91  52  26 S21       29.68F
PORT ISABEL    SUNNY     91  51  25 S20G29    29.67F
HEBBRONVILLE   CLEAR     94  31  10 SW15G21   29.66F
MCALLEN        SUNNY     97  44  16 S14G25    29.65F
WESLACO        SUNNY     93  48  21 S18G26    29.65F
FALFURRIAS     CLEAR     93  34  12 S22G28    29.63F
EDINBURG       CLEAR     96  34  11 S18G25    29.65F
$$




USA.gov is the U.S. government's official web portal to all federal, state and local government web resources and services.